Location: Newark
(25.4297°S, 49.2719°W)
Time: 20:37:38
(UTC+00:00)

Vanguard 1 Rocket - Pass Details

Date: 23 November 2019
Orbit: 650 x 4226 km, 34.3° (Epoch: 10 December)

Event Time Altitude Azimuth Distance (km) Brightness Sun altitude
Rises 13:52:31 0° 326° (NW) 5,112 11.2 72.9°
Reaches altitude 10° 13:55:24 10° 332° (NNW) 4,488 11.0 73.5°
Maximum altitude 14:08:33 51° 44° (NE) 3,614 11.8 76.4°
Drops below altitude 10° 14:31:07 10° 111° (ESE) 7,346 12.2 81.0°
Sets 14:37:30 0° 115° (ESE) 8,482 12.4 82.2°
